User: anonymous   Login
Location: Unspecified
(0.0000°N, 0.0000°E)
Time: 05:47:58
(UTC+00:00)
Language:

FIREBIRD 3 - Orbit

View from above orbital plane
View from above orbital plane
View from above satellite
View from above satellite

Ground track
Ground track

The orbit data is extracted from the following two-line orbital elements,

1 40377U 15003B   19083.10589833  .00003079  00000-0  12496-3 0  9992
2 40377  99.1050  45.6930 0128632  19.4490 341.1582 15.18386561228788
Epoch (UTC): 24 March 2019 02:32:29
Eccentricity: 0.0128632
inclination: 99.1050°
perigee height: 422 km
apogee height: 599 km
right ascension of ascending node: 45.6930°
argument of perigee: 19.4490°
revolutions per day: 15.18386561
mean anomaly at epoch: 341.1582°
orbit number at epoch: 22878

The dashed part of the orbit path shows where the satellite is in the earth's shadow,  

DLR